This is the latest recevied weather packets stored in our database for station/object KC8ZBC. If no packets are shown the sender has not sent any weather packets the latest 10 day(s).
| Time | Temp. | Humidity | Pressure | Rain* | Wind** | Luminosity | Snow |
|---|---|---|---|---|---|---|---|
| 1777855887 | 12.22° C | 61% | 983.8 hPa | 0 mm | - | 0 W/m² | - |
| 1777855586 | 12.22° C | 61% | 983.7 hPa | 0 mm | - | 0 W/m² | - |
| 1777855283 | 12.22° C | 60% | 983.7 hPa | 0 mm | - | 0 W/m² | - |
| 1777854979 | 12.78° C | 59% | 983.9 hPa | 0 mm | - | 0 W/m² | - |
| 1777854675 | 12.78° C | 59% | 983.7 hPa | 0 mm | - | 0 W/m² | - |
| 1777854372 | 12.78° C | 58% | 983.8 hPa | 0 mm | - | 1 W/m² | - |
| 1777854070 | 12.78° C | 58% | 983.8 hPa | 0 mm | - | 2 W/m² | - |
| 1777853768 | 13.33° C | 57% | 983.6 hPa | 0 mm | - | 2 W/m² | - |
| 1777853463 | 13.33° C | 56% | 983.5 hPa | 0 mm | - | 5 W/m² | - |
| 1777853160 | 13.33° C | 55% | 983.6 hPa | 0 mm | - | 9 W/m² | - |
| 1777852858 | 13.89° C | 54% | 983.4 hPa | 0 mm | - | 7 W/m² | - |
| 1777852557 | 13.89° C | 54% | 983.4 hPa | 0 mm | - | 10 W/m² | - |
| 1777852253 | 13.89° C | 53% | 983.5 hPa | 0 mm | - | 11 W/m² | - |
| 1777851950 | 13.89° C | 52% | 983.4 hPa | 0 mm | - | 15 W/m² | - |
| 1777851648 | 13.89° C | 51% | 983.3 hPa | 0 mm | - | 17 W/m² | - |
| 1777851344 | 14.44° C | 52% | 983.2 hPa | 0 mm | - | 22 W/m² | - |
| 1777851041 | 14.44° C | 51% | 983.3 hPa | 0 mm | - | 24 W/m² | - |
| 1777850738 | 14.44° C | 50% | 983.4 hPa | 0 mm | - | 29 W/m² | - |
| 1777850435 | 14.44° C | 50% | 983.3 hPa | 0 mm | - | 31 W/m² | - |
| 1777850133 | 14.44° C | 50% | 983.5 hPa | 0 mm | - | 32 W/m² | - |
| 1777849829 | 14.44° C | 50% | 983.4 hPa | 0 mm | - | 18 W/m² | - |
| 1777849526 | 14.44° C | 49% | 983.4 hPa | 0 mm | - | 13 W/m² | - |
| 1777849224 | 14.44° C | 49% | 983.7 hPa | 0 mm | - | 17 W/m² | - |
| 1777848920 | 15° C | 49% | 983.8 hPa | 0 mm | - | 15 W/m² | - |
| 1777848615 | 15° C | 49% | 983.6 hPa | 0 mm | - | 17 W/m² | - |
* Rain latest hour (hover to see other rain measurements)
** Current wind speed in m/s (hover to see current wind gust speed)